| time (UTC) | temp F | wind direction | speed knots | gust knots | rain 1hr in | rain 24hr in | rain mn in | humidity % | barometer mb |
| 20260504160159 | 62 | 270 | 0.9 | 1.7 | 0.00 | 0.00 | 0.00 | 48 | 1016.0 |
| 20260504160152 | 62 | 270 | 0.9 | 1.7 | 0.00 | 0.00 | 0.00 | 48 | 1016.0 |
| 20260504151025 | 65 | 270 | 2.6 | 4.3 | 0.00 | 0.00 | 0.00 | 47 | 1016.0 |
| 20260504151019 | 65 | 270 | 2.6 | 4.3 | 0.00 | 0.00 | 0.00 | 47 | 1016.0 |
| 20260504150516 | 65 | 270 | 2.6 | 5.2 | 0.00 | 0.00 | 0.00 | 47 | 1016.1 |
| 20260504150510 | 65 | 270 | 2.6 | 5.2 | 0.00 | 0.00 | 0.00 | 47 | 1016.1 |
| 20260504140833 | 67 | 270 | 1.7 | 3.5 | 0.00 | 0.00 | 0.00 | 46 | 1016.3 |
| 20260504140826 | 67 | 270 | 1.7 | 3.5 | 0.00 | 0.00 | 0.00 | 46 | 1016.3 |
| 20260504140317 | 67 | 270 | 2.6 | 4.3 | 0.00 | 0.00 | 0.00 | 46 | 1016.4 |
| 20260504130638 | 0 | 270 | 1.7 | 0.0 | 0.00 | 0.00 | 0.00 | ||
| 20260504130632 | 69 | 270 | 1.7 | 3.5 | 0.00 | 0.00 | 0.00 | 45 | 1016.6 |
| 20260504130122 | 69 | 270 | 2.6 | 4.3 | 0.00 | 0.00 | 0.00 | 45 | 1016.7 |
| 20260504110251 | 65 | 270 | 1.7 | 4.3 | 0.00 | 0.00 | 0.00 | 48 | 1017.1 |
| 20260504110245 | 65 | 270 | 1.7 | 4.3 | 0.00 | 0.00 | 0.00 | 48 | 1017.1 |
| 20260504100608 | 64 | 270 | 2.6 | 3.5 | 0.00 | 0.00 | 0.00 | 48 | 1017.3 |
| 20260504100602 | 64 | 270 | 2.6 | 3.5 | 0.00 | 0.00 | 0.00 | 48 | 1017.3 |
| 20260504081747 | 62 | 270 | 3.5 | 5.2 | 0.00 | 0.00 | 0.00 | 50 | 1017.3 |
| 20260504081244 | 61 | 270 | 2.6 | 4.3 | 0.00 | 0.00 | 0.00 | 50 | 1017.3 |
| 20260504081237 | 61 | 270 | 2.6 | 4.3 | 0.00 | 0.00 | 0.00 | 50 | 1017.3 |
| 20260504080219 | 60 | 270 | 2.6 | 5.2 | 0.00 | 0.00 | 0.00 | 50 | 1017.1 |
| 20260504050712 | 51 | 270 | 4.3 | 0.0 | 0.00 | 0.00 | 0.00 | 52 | 1016.9 |
| 20260504045654 | 50 | 270 | 3.5 | 5.2 | 0.00 | 0.00 | 0.00 | 52 | 1016.8 |
| 20260504045145 | 50 | 270 | 4.3 | 7.8 | 0.00 | 0.00 | 0.00 | 52 | 1016.8 |
| 20260504044643 | 50 | 270 | 4.3 | 7.0 | 0.00 | 0.00 | 0.00 | 52 | 1016.9 |
| 20260504044636 | 50 | 270 | 4.3 | 7.0 | 0.00 | 0.00 | 0.00 | 52 | 1016.9 |
| 20260504044128 | 50 | 270 | 4.3 | 8.7 | 0.00 | 0.00 | 0.00 | 52 | 1016.8 |
| 20260504043619 | 50 | 270 | 4.3 | 9.6 | 0.00 | 0.00 | 0.00 | 52 | 1016.9 |
| 20260504043110 | 50 | 270 | 5.2 | 8.7 | 0.00 | 0.00 | 0.00 | 52 | 1016.9 |
| 20260504042601 | 50 | 270 | 4.3 | 6.1 | 0.00 | 0.00 | 0.00 | 52 | 1016.8 |
| 20260504042052 | 50 | 270 | 4.3 | 8.7 | 0.00 | 0.00 | 0.00 | 52 | 1016.9 |
| 20260504041543 | 50 | 270 | 4.3 | 6.1 | 0.00 | 0.00 | 0.00 | 51 | 1016.8 |
| 20260504041041 | 50 | 270 | 4.3 | 6.1 | 0.00 | 0.00 | 0.00 | 51 | 1017.0 |
| 20260504041034 | 50 | 270 | 4.3 | 6.1 | 0.00 | 0.00 | 0.00 | 51 | 1017.0 |
| 20260504040023 | 49 | 270 | 4.3 | 8.7 | 0.00 | 0.00 | 0.00 | 51 | 1017.2 |
| 20260504040016 | 49 | 270 | 4.3 | 8.7 | 0.00 | 0.00 | 0.00 | 51 | 1017.2 |
| 20260504035514 | 49 | 270 | 4.3 | 7.0 | 0.00 | 0.00 | 0.00 | 51 | 1017.1 |
| 20260504035507 | 49 | 270 | 4.3 | 7.0 | 0.00 | 0.00 | 0.00 | 51 | 1017.1 |
| 20260504034959 | 49 | 270 | 4.3 | 7.0 | 0.00 | 0.00 | 0.00 | 51 | 1017.0 |
| 20260504034450 | 49 | 270 | 5.2 | 10.4 | 0.00 | 0.00 | 0.00 | 51 | 1017.0 |
| 20260504033947 | 49 | 270 | 4.3 | 9.6 | 0.00 | 0.00 | 0.00 | 51 | 1017.0 |
| 20260504033941 | 49 | 270 | 4.3 | 9.6 | 0.00 | 0.00 | 0.00 | 51 | 1017.0 |
| 20260504033438 | 49 | 270 | 5.2 | 7.8 | 0.00 | 0.00 | 0.00 | 51 | 1017.0 |
| 20260504033432 | 49 | 270 | 5.2 | 7.8 | 0.00 | 0.00 | 0.00 | 51 | 1017.0 |
| 20260504032414 | 49 | 270 | 5.2 | 8.7 | 0.00 | 0.00 | 0.00 | 50 | 1017.1 |
| 20260504031905 | 49 | 270 | 4.3 | 7.0 | 0.00 | 0.00 | 0.00 | 50 | 1017.1 |
| 20260504031403 | 49 | 270 | 4.3 | 7.0 | 0.00 | 0.00 | 0.00 | 50 | 1017.0 |
| 20260504031356 | 49 | 270 | 4.3 | 7.0 | 0.00 | 0.00 | 0.00 | 50 | 1017.0 |
| 20260504030854 | 49 | 270 | 5.2 | 8.7 | 0.00 | 0.00 | 0.00 | 50 | 1017.1 |
| 20260504030847 | 49 | 270 | 5.2 | 8.7 | 0.00 | 0.00 | 0.00 | 50 | 1017.1 |
| 20260504025836 | 49 | 270 | 4.3 | 7.8 | 0.00 | 0.00 | 0.00 | 50 | 1017.1 |
| 20260504025830 | 49 | 270 | 4.3 | 7.8 | 0.00 | 0.00 | 0.00 | 50 | 1017.1 |
| 20260504025321 | 49 | 270 | 5.2 | 9.6 | 0.00 | 0.00 | 0.00 | 50 | 1017.2 |
| 20260504024812 | 49 | 270 | 4.3 | 7.8 | 0.00 | 0.00 | 0.00 | 49 | 1017.2 |
| 20260504024310 | 49 | 270 | 5.2 | 7.8 | 0.00 | 0.00 | 0.00 | 49 | 1017.2 |
| 20260504024303 | 49 | 270 | 5.2 | 7.8 | 0.00 | 0.00 | 0.00 | 49 | 1017.2 |
| 20260504023801 | 49 | 270 | 5.2 | 8.7 | 0.00 | 0.00 | 0.00 | 49 | 1017.2 |
| 20260504023754 | 49 | 270 | 5.2 | 8.7 | 0.00 | 0.00 | 0.00 | 49 | 1017.2 |
| 20260504023252 | 49 | 270 | 5.2 | 9.6 | 0.00 | 0.00 | 0.00 | 49 | 1017.2 |
| 20260504023245 | 49 | 270 | 5.2 | 9.6 | 0.00 | 0.00 | 0.00 | 49 | 1017.2 |
| 20260504022743 | 50 | 270 | 5.2 | 7.0 | 0.00 | 0.00 | 0.00 | 49 | 1017.2 |
| 20260504022736 | 50 | 270 | 5.2 | 7.0 | 0.00 | 0.00 | 0.00 | 49 | 1017.2 |
| 20260504022234 | 50 | 270 | 4.3 | 7.0 | 0.00 | 0.00 | 0.00 | 49 | 1017.2 |
| 20260504022227 | 50 | 270 | 4.3 | 7.0 | 0.00 | 0.00 | 0.00 | 49 | 1017.2 |
| 20260504021216 | 50 | 270 | 5.2 | 8.7 | 0.00 | 0.00 | 0.00 | 49 | 1017.2 |
| 20260504021210 | 50 | 270 | 5.2 | 8.7 | 0.00 | 0.00 | 0.00 | 49 | 1017.2 |
| 20260504020707 | 50 | 270 | 4.3 | 6.1 | 0.00 | 0.00 | 0.00 | 49 | 1017.3 |
| 20260504020701 | 50 | 270 | 4.3 | 6.1 | 0.00 | 0.00 | 0.00 | 49 | 1017.3 |
| 20260504020152 | 50 | 270 | 4.3 | 6.1 | 0.00 | 0.00 | 0.00 | 48 | 1017.3 |
| 20260504015141 | 50 | 270 | 4.3 | 7.0 | 0.00 | 0.00 | 0.00 | 48 | 1017.4 |
| 20260504015134 | 50 | 270 | 4.3 | 7.0 | 0.00 | 0.00 | 0.00 | 48 | 1017.4 |
| 20260504014632 | 50 | 270 | 4.3 | 7.0 | 0.00 | 0.00 | 0.00 | 48 | 1017.3 |
| 20260504014625 | 50 | 270 | 4.3 | 7.0 | 0.00 | 0.00 | 0.00 | 48 | 1017.3 |
| 20260504014123 | 50 | 270 | 4.3 | 7.0 | 0.00 | 0.00 | 0.00 | 48 | 1017.3 |
| 20260504014116 | 50 | 270 | 4.3 | 7.0 | 0.00 | 0.00 | 0.00 | 48 | 1017.3 |
| 20260504013614 | 50 | 270 | 5.2 | 9.6 | 0.00 | 0.00 | 0.00 | 48 | 1017.4 |
| 20260504013607 | 50 | 270 | 5.2 | 9.6 | 0.00 | 0.00 | 0.00 | 48 | 1017.4 |
| 20260504013106 | 50 | 270 | 5.2 | 7.0 | 0.00 | 0.00 | 0.00 | 48 | 1017.3 |
| 20260504013059 | 50 | 270 | 5.2 | 7.0 | 0.00 | 0.00 | 0.00 | 48 | 1017.3 |
| 20260504012556 | 50 | 270 | 5.2 | 7.0 | 0.00 | 0.00 | 0.00 | 48 | 1017.3 |
| 20260504012550 | 50 | 270 | 5.2 | 7.0 | 0.00 | 0.00 | 0.00 | 48 | 1017.3 |
| 20260504012048 | 50 | 270 | 5.2 | 8.7 | 0.00 | 0.00 | 0.00 | 48 | 1017.3 |
| 20260504012041 | 50 | 270 | 5.2 | 8.7 | 0.00 | 0.00 | 0.00 | 48 | 1017.3 |
| 20260504011538 | 50 | 270 | 5.2 | 7.0 | 0.00 | 0.00 | 0.00 | 48 | 1017.2 |
| 20260504011532 | 50 | 270 | 5.2 | 7.0 | 0.00 | 0.00 | 0.00 | 48 | 1017.2 |
| 20260504011023 | 50 | 270 | 5.2 | 7.8 | 0.00 | 0.00 | 0.00 | 48 | 1017.2 |
| 20260504010521 | 51 | 270 | 5.2 | 10.4 | 0.00 | 0.00 | 0.00 | 48 | 1017.3 |
| 20260504010514 | 51 | 270 | 5.2 | 10.4 | 0.00 | 0.00 | 0.00 | 48 | 1017.3 |
| 20260504010012 | 51 | 270 | 4.3 | 7.8 | 0.00 | 0.00 | 0.00 | 47 | 1017.3 |
| 20260504010005 | 51 | 270 | 4.3 | 7.8 | 0.00 | 0.00 | 0.00 | 47 | 1017.3 |
| 20260504005503 | 0 | 270 | 5.2 | 7.0 | 0.00 | 0.00 | 0.00 | ||
| 20260504005456 | 51 | 270 | 5.2 | 7.0 | 0.00 | 0.00 | 0.00 | 47 | 1017.2 |
| 20260504004954 | 51 | 270 | 5.2 | 0.0 | 0.00 | 0.00 | 0.00 | 47 | 1017.2 |
| 20260504004947 | 51 | 270 | 5.2 | 0.0 | 0.00 | 0.00 | 0.00 | 47 | 1017.2 |
| 20260504004513 | 51 | 270 | 5.2 | 12.2 | 0.00 | 0.00 | 0.00 | 47 | 1017.2 |
| 20260504004438 | 51 | 270 | 5.2 | 12.2 | 0.00 | 0.00 | 0.00 | 47 | 1017.2 |
| 20260504003936 | 51 | 270 | 4.3 | 7.0 | 0.00 | 0.00 | 0.00 | 47 | 1017.2 |
| 20260504003929 | 51 | 270 | 4.3 | 7.0 | 0.00 | 0.00 | 0.00 | 47 | 1017.2 |
| 20260504003427 | 51 | 270 | 5.2 | 0.0 | 0.00 | 0.00 | 0.00 | 47 | 1017.2 |
| 20260504003421 | 51 | 270 | 5.2 | 0.0 | 0.00 | 0.00 | 0.00 | 47 | 1017.2 |
| 20260504002918 | 51 | 270 | 4.3 | 6.1 | 0.00 | 0.00 | 0.00 | 47 | 1017.2 |
| 20260504002912 | 51 | 270 | 4.3 | 6.1 | 0.00 | 0.00 | 0.00 | 47 | 1017.2 |
| 20260504002409 | 51 | 270 | 4.3 | 8.7 | 0.00 | 0.00 | 0.00 | 47 | 1017.2 |
| 20260504002403 | 51 | 270 | 4.3 | 8.7 | 0.00 | 0.00 | 0.00 | 47 | 1017.2 |
| 20260504001854 | 51 | 270 | 5.2 | 7.8 | 0.00 | 0.00 | 0.00 | 47 | 1017.4 |
| 20260504001345 | 51 | 270 | 4.3 | 8.7 | 0.00 | 0.00 | 0.00 | 47 | 1017.4 |
| 20260504000843 | 51 | 270 | 4.3 | 7.0 | 0.00 | 0.00 | 0.00 | 47 | 1017.3 |
| 20260504000836 | 51 | 270 | 4.3 | 7.0 | 0.00 | 0.00 | 0.00 | 47 | 1017.3 |
| 20260504000334 | 51 | 270 | 5.2 | 0.0 | 0.00 | 0.00 | 0.00 | 47 | 1017.5 |
| 20260504000327 | 51 | 270 | 5.2 | 0.0 | 0.00 | 0.00 | 0.00 | 47 | 1017.5 |
| 20260503235825 | 51 | 270 | 4.3 | 7.0 | 0.00 | 0.00 | 0.00 | 47 | 1017.5 |
| 20260503235818 | 51 | 270 | 4.3 | 7.0 | 0.00 | 0.00 | 0.00 | 47 | 1017.5 |
| 20260503235316 | 51 | 270 | 4.3 | 7.0 | 0.00 | 0.00 | 0.00 | 47 | 1017.4 |
| 20260503235309 | 51 | 270 | 4.3 | 7.0 | 0.00 | 0.00 | 0.00 | 47 | 1017.4 |
| 20260503234252 | 51 | 270 | 5.2 | 7.8 | 0.00 | 0.00 | 0.00 | 47 | 1017.4 |
| 20260503233749 | 51 | 270 | 4.3 | 7.0 | 0.00 | 0.00 | 0.00 | 47 | 1017.5 |
| 20260503233742 | 51 | 270 | 4.3 | 7.0 | 0.00 | 0.00 | 0.00 | 47 | 1017.5 |
| 20260503233240 | 51 | 270 | 5.2 | 7.0 | 0.00 | 0.00 | 0.00 | 47 | 1017.5 |
| 20260503233234 | 51 | 270 | 5.2 | 7.0 | 0.00 | 0.00 | 0.00 | 47 | 1017.5 |
| 20260503232731 | 51 | 270 | 5.2 | 7.8 | 0.00 | 0.00 | 0.00 | 47 | 1017.5 |
| 20260503232725 | 51 | 270 | 5.2 | 7.8 | 0.00 | 0.00 | 0.00 | 47 | 1017.5 |
| 20260503232222 | 51 | 270 | 4.3 | 7.0 | 0.00 | 0.00 | 0.00 | 47 | 1017.6 |
| 20260503232216 | 51 | 270 | 4.3 | 7.0 | 0.00 | 0.00 | 0.00 | 47 | 1017.6 |
| 20260503231713 | 51 | 270 | 4.3 | 5.2 | 0.00 | 0.00 | 0.00 | 47 | 1017.5 |
| 20260503231707 | 51 | 270 | 4.3 | 5.2 | 0.00 | 0.00 | 0.00 | 47 | 1017.5 |
| 20260503231205 | 51 | 270 | 4.3 | 0.0 | 0.00 | 0.00 | 0.00 | 47 | 1017.6 |
| 20260503231158 | 51 | 270 | 4.3 | 0.0 | 0.00 | 0.00 | 0.00 | 47 | 1017.6 |
| 20260503230655 | 51 | 270 | 4.3 | 7.0 | 0.00 | 0.00 | 0.00 | 47 | 1017.6 |
| 20260503230649 | 51 | 270 | 4.3 | 7.0 | 0.00 | 0.00 | 0.00 | 47 | 1017.6 |
| 20260503230140 | 51 | 270 | 4.3 | 7.8 | 0.00 | 0.00 | 0.00 | 47 | 1017.7 |
| 20260503225638 | 51 | 270 | 5.2 | 7.0 | 0.00 | 0.00 | 0.00 | 47 | 1017.6 |
| 20260503225631 | 51 | 270 | 5.2 | 7.0 | 0.00 | 0.00 | 0.00 | 47 | 1017.6 |
| 20260503224613 | 51 | 270 | 6.1 | 8.7 | 0.00 | 0.00 | 0.00 | 47 | 1017.6 |
| 20260503224111 | 51 | 270 | 5.2 | 7.0 | 0.00 | 0.00 | 0.00 | 47 | 1017.6 |
| 20260503224104 | 51 | 270 | 5.2 | 7.0 | 0.00 | 0.00 | 0.00 | 47 | 1017.6 |
| 20260503223602 | 51 | 270 | 4.3 | 7.0 | 0.00 | 0.00 | 0.00 | 47 | 1017.7 |
| 20260503223555 | 51 | 270 | 4.3 | 7.0 | 0.00 | 0.00 | 0.00 | 47 | 1017.7 |
| 20260503223053 | 52 | 270 | 4.3 | 8.7 | 0.00 | 0.00 | 0.00 | 47 | 1017.7 |
| 20260503223046 | 52 | 270 | 4.3 | 8.7 | 0.00 | 0.00 | 0.00 | 47 | 1017.7 |
| 20260503222544 | 52 | 270 | 5.2 | 0.0 | 0.00 | 0.00 | 0.00 | 47 | 1017.6 |
| 20260503222537 | 52 | 270 | 5.2 | 0.0 | 0.00 | 0.00 | 0.00 | 47 | 1017.6 |
| 20260503222035 | 52 | 270 | 5.2 | 0.0 | 0.00 | 0.00 | 0.00 | 47 | 1017.7 |
| 20260503222029 | 52 | 270 | 5.2 | 0.0 | 0.00 | 0.00 | 0.00 | 47 | 1017.7 |
| 20260503221520 | 52 | 270 | 5.2 | 7.8 | 0.00 | 0.00 | 0.00 | 47 | 1017.7 |
| 20260503221017 | 52 | 270 | 5.2 | 8.7 | 0.00 | 0.00 | 0.00 | 47 | 1017.8 |
| 20260503221011 | 52 | 270 | 5.2 | 8.7 | 0.00 | 0.00 | 0.00 | 47 | 1017.8 |
| 20260503220509 | 52 | 270 | 5.2 | 10.4 | 0.00 | 0.00 | 0.00 | 47 | 1017.8 |
| 20260503220502 | 52 | 270 | 5.2 | 10.4 | 0.00 | 0.00 | 0.00 | 47 | 1017.8 |
| 20260503215959 | 52 | 270 | 5.2 | 7.0 | 0.00 | 0.00 | 0.00 | 47 | 1017.8 |
| 20260503215953 | 52 | 270 | 5.2 | 7.0 | 0.00 | 0.00 | 0.00 | 47 | 1017.8 |
| 20260503215450 | 52 | 270 | 4.3 | 7.0 | 0.00 | 0.00 | 0.00 | 47 | 1017.8 |
| 20260503215444 | 52 | 270 | 4.3 | 7.0 | 0.00 | 0.00 | 0.00 | 47 | 1017.8 |
| 20260503214941 | 52 | 270 | 5.2 | 7.8 | 0.00 | 0.00 | 0.00 | 47 | 1017.9 |
| 20260503214935 | 52 | 270 | 5.2 | 7.8 | 0.00 | 0.00 | 0.00 | 47 | 1017.9 |
| 20260503214432 | 52 | 270 | 5.2 | 7.8 | 0.00 | 0.00 | 0.00 | 47 | 1017.9 |
| 20260503214426 | 52 | 270 | 5.2 | 7.8 | 0.00 | 0.00 | 0.00 | 47 | 1017.9 |
| 20260503213917 | 52 | 270 | 5.2 | 7.0 | 0.00 | 0.00 | 0.00 | 47 | 1017.9 |
| 20260503213415 | 52 | 270 | 4.3 | 6.1 | 0.00 | 0.00 | 0.00 | 47 | 1018.0 |
| 20260503213408 | 52 | 270 | 4.3 | 6.1 | 0.00 | 0.00 | 0.00 | 47 | 1018.0 |
| 20260503212906 | 52 | 270 | 5.2 | 7.0 | 0.00 | 0.00 | 0.00 | 47 | 1018.0 |
| 20260503212859 | 52 | 270 | 5.2 | 7.0 | 0.00 | 0.00 | 0.00 | 47 | 1018.0 |
| 20260503212357 | 52 | 270 | 4.3 | 7.0 | 0.00 | 0.00 | 0.00 | 47 | 1018.0 |
| 20260503212350 | 52 | 270 | 4.3 | 7.0 | 0.00 | 0.00 | 0.00 | 47 | 1018.0 |
| 20260503211841 | 52 | 270 | 4.3 | 8.7 | 0.00 | 0.00 | 0.00 | 47 | 1018.1 |
| 20260503211339 | 52 | 270 | 4.3 | 7.0 | 0.00 | 0.00 | 0.00 | 47 | 1018.1 |
| 20260503211332 | 52 | 270 | 4.3 | 7.0 | 0.00 | 0.00 | 0.00 | 47 | 1018.1 |
| 20260503210830 | 52 | 270 | 4.3 | 6.1 | 0.00 | 0.00 | 0.00 | 46 | 1018.1 |
| 20260503210823 | 52 | 270 | 4.3 | 6.1 | 0.00 | 0.00 | 0.00 | 46 | 1018.1 |
| 20260503210321 | 52 | 270 | 5.2 | 7.8 | 0.00 | 0.00 | 0.00 | 46 | 1018.1 |
| 20260503210314 | 52 | 270 | 5.2 | 7.8 | 0.00 | 0.00 | 0.00 | 46 | 1018.1 |
| 20260503205812 | 52 | 270 | 4.3 | 6.1 | 0.00 | 0.00 | 0.00 | 46 | 1018.1 |
| 20260503205805 | 52 | 270 | 4.3 | 6.1 | 0.00 | 0.00 | 0.00 | 46 | 1018.1 |
| 20260503205257 | 52 | 270 | 4.3 | 7.0 | 0.00 | 0.00 | 0.00 | 46 | 1018.1 |
| 20260503204239 | 53 | 270 | 4.3 | 7.0 | 0.00 | 0.00 | 0.00 | 46 | 1018.1 |
| 20260503203736 | 53 | 270 | 5.2 | 8.7 | 0.00 | 0.00 | 0.00 | 46 | 1018.1 |
| 20260503203730 | 53 | 270 | 5.2 | 8.7 | 0.00 | 0.00 | 0.00 | 46 | 1018.1 |
| 20260503203227 | 53 | 270 | 4.3 | 6.1 | 0.00 | 0.00 | 0.00 | 46 | 1018.2 |
| 20260503203221 | 53 | 270 | 4.3 | 6.1 | 0.00 | 0.00 | 0.00 | 46 | 1018.2 |
| 20260503202718 | 53 | 270 | 4.3 | 7.8 | 0.00 | 0.00 | 0.00 | 46 | 1018.2 |
| 20260503202712 | 53 | 270 | 4.3 | 7.8 | 0.00 | 0.00 | 0.00 | 46 | 1018.2 |
| 20260503202209 | 53 | 270 | 4.3 | 6.1 | 0.00 | 0.00 | 0.00 | 46 | 1018.2 |
| 20260503202203 | 53 | 270 | 4.3 | 6.1 | 0.00 | 0.00 | 0.00 | 46 | 1018.2 |
| 20260503201700 | 53 | 270 | 4.3 | 7.0 | 0.00 | 0.00 | 0.00 | 45 | 1018.1 |
| 20260503201654 | 53 | 270 | 4.3 | 7.0 | 0.00 | 0.00 | 0.00 | 45 | 1018.1 |
| 20260503201151 | 53 | 270 | 5.2 | 7.0 | 0.00 | 0.00 | 0.00 | 45 | 1018.0 |
| 20260503201145 | 53 | 270 | 5.2 | 7.0 | 0.00 | 0.00 | 0.00 | 45 | 1018.0 |
| 20260503200642 | 53 | 270 | 4.3 | 6.1 | 0.00 | 0.00 | 0.00 | 45 | 1018.1 |
| 20260503200636 | 53 | 270 | 4.3 | 6.1 | 0.00 | 0.00 | 0.00 | 45 | 1018.1 |
| 20260503200133 | 53 | 270 | 4.3 | 8.7 | 0.00 | 0.00 | 0.00 | 45 | 1018.3 |
| 20260503200127 | 53 | 270 | 4.3 | 8.7 | 0.00 | 0.00 | 0.00 | 45 | 1018.3 |
| 20260503195618 | 53 | 270 | 4.3 | 6.1 | 0.00 | 0.00 | 0.00 | 45 | 1018.2 |
| 20260503195115 | 54 | 270 | 4.3 | 7.0 | 0.00 | 0.00 | 0.00 | 45 | 1018.3 |
| 20260503195109 | 54 | 270 | 4.3 | 7.0 | 0.00 | 0.00 | 0.00 | 45 | 1018.3 |
| 20260503194606 | 54 | 270 | 4.3 | 7.0 | 0.00 | 0.00 | 0.00 | 45 | |
| 20260503194600 | 54 | 270 | 4.3 | 7.0 | 0.00 | 0.00 | 0.00 | 45 | 1018.3 |
| 20260503194057 | 54 | 270 | 4.3 | 6.1 | 0.00 | 0.00 | 0.00 | 44 | 1018.3 |
| 20260503194051 | 54 | 270 | 4.3 | 6.1 | 0.00 | 0.00 | 0.00 | 44 | 1018.3 |
| 20260503193039 | 54 | 270 | 5.2 | 9.6 | 0.00 | 0.00 | 0.00 | 44 | 1018.3 |
| 20260503193033 | 54 | 270 | 5.2 | 9.6 | 0.00 | 0.00 | 0.00 | 44 | 1018.3 |
| 20260503192021 | 54 | 270 | 4.3 | 6.1 | 0.00 | 0.00 | 0.00 | 44 | 1018.2 |
| 20260503192015 | 54 | 270 | 4.3 | 6.1 | 0.00 | 0.00 | 0.00 | 44 | 1018.2 |
| 20260503191514 | 54 | 270 | 3.5 | 7.0 | 0.00 | 0.00 | 0.00 | 44 | 1018.1 |
| 20260503191506 | 54 | 270 | 3.5 | 7.0 | 0.00 | 0.00 | 0.00 | 44 | 1018.1 |
| 20260503191003 | 54 | 270 | 3.5 | 5.2 | 0.00 | 0.00 | 0.00 | 44 | 1018.1 |
| 20260503190957 | 54 | 270 | 3.5 | 5.2 | 0.00 | 0.00 | 0.00 | 44 | 1018.1 |
| 20260503190454 | 54 | 270 | 4.3 | 7.0 | 0.00 | 0.00 | 0.00 | 44 | 1018.2 |
| 20260503190448 | 54 | 270 | 4.3 | 7.0 | 0.00 | 0.00 | 0.00 | 44 | 1018.2 |
| 20260503185945 | 54 | 270 | 4.3 | 7.0 | 0.00 | 0.00 | 0.00 | 43 | 1018.1 |
| 20260503185939 | 54 | 270 | 4.3 | 7.0 | 0.00 | 0.00 | 0.00 | 43 | 1018.1 |
| 20260503185436 | 55 | 270 | 4.3 | 7.0 | 0.00 | 0.00 | 0.00 | 43 | 1018.1 |
| 20260503185430 | 55 | 270 | 4.3 | 7.0 | 0.00 | 0.00 | 0.00 | 43 | 1018.1 |
| 20260503184927 | 55 | 270 | 3.5 | 5.2 | 0.00 | 0.00 | 0.00 | 43 | 1018.0 |
| 20260503184921 | 55 | 270 | 3.5 | 5.2 | 0.00 | 0.00 | 0.00 | 43 | 1018.0 |
| 20260503184418 | 55 | 270 | 3.5 | 6.1 | 0.00 | 0.00 | 0.00 | 43 | 1018.1 |
| 20260503184412 | 55 | 270 | 3.5 | 6.1 | 0.00 | 0.00 | 0.00 | 43 | 1018.1 |
| 20260503183903 | 55 | 270 | 3.5 | 5.2 | 0.00 | 0.00 | 0.00 | 43 | 1018.1 |
| 20260503183354 | 55 | 270 | 4.3 | 7.0 | 0.00 | 0.00 | 0.00 | 43 | 1018.0 |
| 20260503182851 | 55 | 270 | 3.5 | 5.2 | 0.00 | 0.00 | 0.00 | 43 | 1017.9 |
| 20260503182845 | 55 | 270 | 3.5 | 5.2 | 0.00 | 0.00 | 0.00 | 43 | 1017.9 |
| 20260503182342 | 55 | 270 | 3.5 | 6.1 | 0.00 | 0.00 | 0.00 | 42 | 1017.9 |
| 20260503182336 | 55 | 270 | 3.5 | 6.1 | 0.00 | 0.00 | 0.00 | 42 | 1017.9 |
| 20260503181833 | 56 | 270 | 3.5 | 5.2 | 0.00 | 0.00 | 0.00 | 42 | 1018.0 |
| 20260503181827 | 56 | 270 | 3.5 | 5.2 | 0.00 | 0.00 | 0.00 | 42 | 1018.0 |
| 20260503181318 | 56 | 270 | 4.3 | 6.1 | 0.00 | 0.00 | 0.00 | 42 | 1017.9 |
| 20260503180815 | 56 | 270 | 3.5 | 6.1 | 0.00 | 0.00 | 0.00 | 42 | 1018.0 |
| 20260503180808 | 56 | 270 | 3.5 | 6.1 | 0.00 | 0.00 | 0.00 | 42 | 1018.0 |
| 20260503175751 | 56 | 270 | 3.5 | 7.0 | 0.00 | 0.00 | 0.00 | 42 | 1017.8 |
| 20260503175248 | 57 | 270 | 3.5 | 7.0 | 0.00 | 0.00 | 0.00 | 42 | 1017.9 |
| 20260503175241 | 57 | 270 | 3.5 | 7.0 | 0.00 | 0.00 | 0.00 | 42 | 1017.9 |
| 20260503174732 | 57 | 270 | 2.6 | 4.3 | 0.00 | 0.00 | 0.00 | 42 | 1017.9 |
| 20260503173720 | 58 | 270 | 3.5 | 6.1 | 0.00 | 0.00 | 0.00 | 41 | 1017.9 |
| 20260503173714 | 58 | 270 | 3.5 | 6.1 | 0.00 | 0.00 | 0.00 | 41 | 1017.9 |
| 20260503173205 | 58 | 270 | 3.5 | 6.1 | 0.00 | 0.00 | 0.00 | 41 | 1017.9 |
| 20260503172702 | 58 | 270 | 2.6 | 5.2 | 0.00 | 0.00 | 0.00 | 41 | 1017.9 |
| 20260503172656 | 58 | 270 | 2.6 | 5.2 | 0.00 | 0.00 | 0.00 | 41 | 1017.9 |
| 20260503172153 | 59 | 270 | 2.6 | 4.3 | 0.00 | 0.00 | 0.00 | 41 | 1017.9 |
| 20260503172147 | 59 | 270 | 2.6 | 4.3 | 0.00 | 0.00 | 0.00 | 41 | 1017.9 |
| 20260503171638 | 59 | 270 | 2.6 | 6.1 | 0.00 | 0.00 | 0.00 | 41 | 1017.9 |
| 20260503171135 | 59 | 270 | 4.3 | 7.0 | 0.00 | 0.00 | 0.00 | 41 | 1017.9 |
| 20260503171128 | 59 | 270 | 4.3 | 7.0 | 0.00 | 0.00 | 0.00 | 41 | 1017.9 |
| 20260503170626 | 59 | 270 | 3.5 | 5.2 | 0.00 | 0.00 | 0.00 | 40 | 1017.9 |
| 20260503170619 | 59 | 270 | 3.5 | 5.2 | 0.00 | 0.00 | 0.00 | 40 | 1017.9 |
| 20260503170116 | 60 | 270 | 2.6 | 4.3 | 0.00 | 0.00 | 0.00 | 40 | 1017.9 |
| 20260503170110 | 60 | 270 | 2.6 | 4.3 | 0.00 | 0.00 | 0.00 | 40 | 1017.9 |